When you browse on this site, cookies collect data to enhance your experience and personalize the content and advertising you see.
Visit our Privacy Policy to learn more. By continuing to use the site, you agree to this use of cookies and data.
  • In France
  • List of Countries
  • For 7 days
  • Water Temperature
  • Satellite Maps
  • Weather Map
  • Weather Widgets
  • user-avatar
    Login

    Hourly Weather Busan

    Today, 24 May, Friday

    Time Temperature Precipitation Wind Pressure Humidity
    00:00 +21°C° 0 mm 2 mps 754 mmHg 52%
    01:00 +21°C° 0 mm 2 mps 754 mmHg 52%
    02:00 +20°C° 0 mm 2 mps 754 mmHg 53%
    03:00 +20°C° 0 mm 3 mps 754 mmHg 54%
    04:00 +20°C° 0 mm 2 mps 754 mmHg 55%
    05:00 +19°C° 0 mm 2 mps 755 mmHg 55%
    06:00 +19°C° 0 mm 2 mps 755 mmHg 55%
    07:00 +23°C° 0 mm 2 mps 755 mmHg 49%
    08:00 +25°C° 0 mm 2 mps 755 mmHg 44%
    09:00 +28°C° 0 mm 2 mps 756 mmHg 38%
    10:00 +29°C° 0 mm 3 mps 756 mmHg 36%
    11:00 +30°C° 0 mm 4 mps 756 mmHg 33%
    12:00 +33°C° 0 mm 4 mps 756 mmHg 31%
    13:00 +33°C° 0 mm 5 mps 755 mmHg 34%
    14:00 +33°C° 0 mm 5 mps 755 mmHg 36%
    15:00 +32°C° 0 mm 5 mps 755 mmHg 39%
    16:00 +30°C° 0 mm 5 mps 755 mmHg 44%
    17:00 +29°C° 0 mm 5 mps 755 mmHg 49%
    18:00 +28°C° 0 mm 4 mps 755 mmHg 53%
    19:00 +27°C° 0 mm 4 mps 755 mmHg 58%
    20:00 +25°C° 0 mm 4 mps 755 mmHg 62%
    21:00 +24°C° 0 mm 3 mps 755 mmHg 66%
    22:00 +22°C° 0 mm 3 mps 756 mmHg 67%
    23:00 +22°C° 0 mm 3 mps 756 mmHg 67%

    Tomorrow, 25 May, Saturday

    Time Temperature Precipitation Wind Pressure Humidity
    00:00 +22°C° 0 mm 3 mps 756 mmHg 68%
    01:00 +22°C° 0 mm 3 mps 756 mmHg 69%
    02:00 +21°C° 0 mm 3 mps 756 mmHg 70%
    03:00 +21°C° 0 mm 3 mps 756 mmHg 72%
    04:00 +21°C° 0 mm 3 mps 756 mmHg 72%
    05:00 +21°C° 0 mm 3 mps 757 mmHg 73%
    06:00 +21°C° 0 mm 3 mps 757 mmHg 74%
    07:00 +22°C° 0 mm 3 mps 757 mmHg 67%
    08:00 +25°C° 0 mm 3 mps 757 mmHg 60%
    09:00 +27°C° 0 mm 3 mps 758 mmHg 53%
    10:00 +29°C° 0 mm 3 mps 758 mmHg 44%
    11:00 +31°C° 0 mm 3 mps 758 mmHg 35%
    12:00 +34°C° 0 mm 3 mps 758 mmHg 26%
    13:00 +34°C° 0 mm 4 mps 758 mmHg 26%
    14:00 +35°C° 0 mm 4 mps 758 mmHg 25%
    15:00 +35°C° 0 mm 5 mps 758 mmHg 25%
    16:00 +33°C° 0 mm 4 mps 758 mmHg 30%
    17:00 +32°C° 0 mm 4 mps 757 mmHg 36%
    18:00 +29°C° 0 mm 4 mps 757 mmHg 41%
    19:00 +28°C° 0 mm 4 mps 758 mmHg 44%
    20:00 +27°C° 0 mm 3 mps 758 mmHg 47%
    21:00 +25°C° 0 mm 3 mps 758 mmHg 50%
    22:00 +25°C° 0 mm 3 mps 758 mmHg 51%
    23:00 +25°C° 0 mm 3 mps 759 mmHg 52%

    Day after tomorrow, 26 May, Sunday

    Time Temperature Precipitation Wind Pressure Humidity
    00:00 +24°C° 0 mm 2 mps 759 mmHg 53%
    01:00 +24°C° 0 mm 2 mps 759 mmHg 54%
    02:00 +24°C° 0 mm 2 mps 759 mmHg 55%
    03:00 +23°C° 0 mm 2 mps 759 mmHg 56%
    04:00 +23°C° 0 mm 2 mps 759 mmHg 57%
    05:00 +23°C° 0 mm 2 mps 759 mmHg 58%
    06:00 +23°C° 0 mm 2 mps 759 mmHg 58%
    07:00 +25°C° 0 mm 2 mps 760 mmHg 51%
    08:00 +26°C° 0 mm 2 mps 760 mmHg 43%
    09:00 +28°C° 0 mm 2 mps 760 mmHg 35%
    10:00 +29°C° 0 mm 3 mps 760 mmHg 32%
    11:00 +30°C° 0 mm 3 mps 760 mmHg 28%
    12:00 +32°C° 0 mm 4 mps 760 mmHg 25%
    13:00 +32°C° 0 mm 4 mps 759 mmHg 26%
    14:00 +32°C° 0 mm 4 mps 759 mmHg 27%
    15:00 +32°C° 0 mm 4 mps 758 mmHg 28%
    16:00 +29°C° 0 mm 4 mps 758 mmHg 33%
    17:00 +28°C° 0 mm 4 mps 758 mmHg 37%
    18:00 +27°C° 0 mm 3 mps 758 mmHg 42%
    19:00 +26°C° 0 mm 3 mps 758 mmHg 48%
    20:00 +24°C° 0 mm 3 mps 758 mmHg 53%
    21:00 +23°C° 0 mm 2 mps 758 mmHg 59%
    22:00 +21°C° 0 mm 2 mps 758 mmHg 64%
    23:00 +21°C° 0 mm 2 mps 758 mmHg 69%

    27 May, Monday

    Time Temperature Precipitation Wind Pressure Humidity
    00:00 +20°C° 0 mm 3 mps 758 mmHg 74%
    01:00 +20°C° 0 mm 3 mps 757 mmHg 78%
    02:00 +20°C° 0 mm 3 mps 757 mmHg 81%
    03:00 +20°C° 0 mm 3 mps 756 mmHg 84%
    04:00 +20°C° 0 mm 3 mps 756 mmHg 85%
    05:00 +20°C° 0 mm 3 mps 756 mmHg 86%
    06:00 +20°C° 0 mm 4 mps 755 mmHg 87%
    07:00 +21°C° 0 mm 5 mps 755 mmHg 81%
    08:00 +23°C° 0 mm 6 mps 755 mmHg 76%
    09:00 +24°C° 0 mm 7 mps 755 mmHg 70%
    10:00 +24°C° 0 mm 8 mps 754 mmHg 68%
    11:00 +26°C° 0 mm 8 mps 754 mmHg 66%
    12:00 +26°C° 0 mm 9 mps 753 mmHg 64%
    13:00 +24°C° 1.1 mm 9 mps 752 mmHg 71%
    14:00 +23°C° 1.1 mm 8 mps 752 mmHg 79%
    15:00 +21°C° 1.1 mm 8 mps 751 mmHg 87%
    16:00 +21°C° 2.6 mm 9 mps 750 mmHg 87%
    17:00 +21°C° 2.6 mm 10 mps 750 mmHg 88%
    18:00 +19°C° 2.6 mm 10 mps 749 mmHg 89%
    19:00 +19°C° 4 mm 11 mps 749 mmHg 90%
    20:00 +21°C° 4 mm 12 mps 749 mmHg 91%
    21:00 +20°C° 4 mm 13 mps 749 mmHg 91%
    22:00 +18°C° 2 mm 11 mps 749 mmHg 86%
    23:00 +17°C° 2 mm 9 mps 749 mmHg 80%

    28 May, Tuesday

    Time Temperature Precipitation Wind Pressure Humidity
    00:00 +16°C° 2 mm 7 mps 749 mmHg 75%
    01:00 +15°C° 0 mm 7 mps 749 mmHg 73%
    02:00 +13°C° 0 mm 8 mps 750 mmHg 71%
    03:00 +12°C° 0 mm 9 mps 750 mmHg 69%
    04:00 +12°C° 0 mm 10 mps 750 mmHg 64%
    05:00 +12°C° 0 mm 11 mps 751 mmHg 59%
    06:00 +12°C° 0 mm 11 mps 751 mmHg 54%
    07:00 +14°C° 0 mm 10 mps 752 mmHg 48%
    08:00 +17°C° 0 mm 9 mps 752 mmHg 41%
    09:00 +20°C° 0 mm 8 mps 752 mmHg 34%
    10:00 +21°C° 0 mm 8 mps 752 mmHg 31%
    11:00 +23°C° 0 mm 7 mps 752 mmHg 27%
    12:00 +24°C° 0 mm 6 mps 752 mmHg 24%
    13:00 +26°C° 0 mm 6 mps 752 mmHg 24%
    14:00 +26°C° 0 mm 5 mps 752 mmHg 24%
    15:00 +27°C° 0 mm 5 mps 752 mmHg 24%
    16:00 +26°C° 0 mm 5 mps 752 mmHg 27%
    17:00 +26°C° 0 mm 5 mps 752 mmHg 30%
    18:00 +25°C° 0 mm 5 mps 752 mmHg 33%
    19:00 +23°C° 0 mm 5 mps 753 mmHg 35%
    20:00 +21°C° 0 mm 5 mps 753 mmHg 36%
    21:00 +20°C° 0 mm 5 mps 754 mmHg 37%
    22:00 +19°C° 0 mm 4 mps 754 mmHg 39%
    23:00 +19°C° 0 mm 4 mps 754 mmHg 41%

    29 May, Wednesday

    Time Temperature Precipitation Wind Pressure Humidity
    00:00 +18°C° 0 mm 4 mps 754 mmHg 43%
    01:00 +17°C° 0 mm 4 mps 754 mmHg 45%
    02:00 +17°C° 0 mm 3 mps 754 mmHg 47%
    03:00 +16°C° 0 mm 3 mps 753 mmHg 49%
    04:00 +16°C° 0 mm 3 mps 753 mmHg 51%
    05:00 +16°C° 0 mm 3 mps 754 mmHg 53%
    06:00 +16°C° 0 mm 3 mps 754 mmHg 55%
    07:00 +18°C° 0 mm 3 mps 754 mmHg 50%
    08:00 +20°C° 0 mm 3 mps 754 mmHg 45%
    09:00 +24°C° 0 mm 3 mps 754 mmHg 40%
    10:00 +25°C° 0 mm 3 mps 754 mmHg 36%
    11:00 +27°C° 0 mm 3 mps 754 mmHg 32%
    12:00 +29°C° 0 mm 4 mps 754 mmHg 28%
    13:00 +29°C° 0 mm 4 mps 753 mmHg 27%
    14:00 +30°C° 0 mm 5 mps 753 mmHg 27%
    15:00 +30°C° 0 mm 6 mps 753 mmHg 26%
    16:00 +29°C° 0 mm 6 mps 753 mmHg 31%
    17:00 +28°C° 0 mm 6 mps 753 mmHg 35%
    18:00 +27°C° 0 mm 6 mps 753 mmHg 40%
    19:00 +26°C° 0 mm 6 mps 753 mmHg 43%
    20:00 +25°C° 0 mm 5 mps 753 mmHg 46%
    21:00 +22°C° 0 mm 5 mps 754 mmHg 49%
    22:00 +22°C° 0 mm 4 mps 754 mmHg 50%
    23:00 +21°C° 0 mm 4 mps 754 mmHg 50%
    Show more